Daviess Cnty AP, Washington,, IN

5:54 PM EST on December 07, 2019 (GMT -0500)
Daviess County

Weather History for KDCY - May, 2019

Change the Weather History Date:

Monday, May 20, 2019

  Actual Average (WUND) Record (WUND)
Temperature  
Mean Temperature 62 °F -  
Max Temperature 71 °F - - (-1)
Min Temperature 52 °F - - (-1)
Degree Days  
Heating Degree Days 4    
Growing Degree Days 12 (Base 50)    
Moisture  
Dew Point 51 °F    
Average Humidity 69    
Maximum Humidity 99    
Minimum Humidity 47    
Precipitation  
Precipitation 0.00 in - - ()
Sea Level Pressure  
Sea Level Pressure 30.03 in    
Wind  
Wind Speed 7 mph (NW)    
Max Wind Speed 13 mph    
Max Gust Speed 16 mph    
Visibility 10 miles    
Events      
Averages and records for this station are not official NWS values.
T = Trace of Precipitation, MM = Missing Value Source: NWS Daily Summary

Daily Weather History Graph

Daily Weather History Graph

Search for Another Location

Airport or City:

Astronomy

May. 20, 2019 Rise Set
Actual Time 6:32 AM EDT 8:57 PM EDT
Civil Twilight 6:02 AM EDT 9:28 PM EDT
Nautical Twilight 5:24 AM EDT 10:05 PM EDT
Astronomical Twilight 4:43 AM EDT 10:47 PM EDT
Moon 10:58 PM EDT (5/20) 8:00 AM EDT (5/20)
Length of Visible Light 15h 26m
Length of Day
14h 25m
Waning Gibbous, 96% of the Moon is Illuminated
May 20
Waning Gibbous
May 26
Last Quarter
Jun 3
New
Jun 10
First Quarter
Jun 17
Full

Hourly Weather History & Observations

Time (EDT) Temp. Dew Point Humidity Pressure Visibility Wind Dir Wind Speed Gust Speed Precip Events Conditions
12:15 AM 62.2 °F 62.1 °F 99% 29.89 in 10.0 mi SW 5.8 mph - N/A   Clear
12:35 AM 62.2 °F 61.7 °F 98% 29.90 in 10.0 mi SSW 5.8 mph - N/A   Clear
12:55 AM 61.9 °F 61.7 °F 99% 29.90 in 10.0 mi SW 6.9 mph - N/A   Clear
1:15 AM 62.4 °F 61.5 °F 97% 29.90 in 10.0 mi SW 5.8 mph - N/A   Clear
1:35 AM 63.9 °F 59.2 °F 85% 29.91 in 10.0 mi West 8.1 mph - N/A   Scattered Clouds
1:55 AM 63.0 °F 57.9 °F 84% 29.92 in 10.0 mi WNW 5.8 mph - N/A   Scattered Clouds
2:15 AM 62.6 °F 56.5 °F 80% 29.93 in 10.0 mi NW 8.1 mph - N/A   Clear
2:35 AM 61.0 °F 55.8 °F 83% 29.93 in 10.0 mi NW 4.6 mph - N/A   Clear
2:55 AM 60.4 °F 54.5 °F 81% 29.94 in 10.0 mi NW 9.2 mph - N/A   Clear
3:15 AM 60.3 °F 53.2 °F 78% 29.95 in 10.0 mi WNW 6.9 mph - N/A   Scattered Clouds
3:35 AM 61.2 °F 52.9 °F 74% 29.95 in 10.0 mi WNW 6.9 mph - N/A   Mostly Cloudy
3:55 AM 59.5 °F 54.5 °F 83% 29.96 in 10.0 mi NW 6.9 mph - N/A   Overcast
4:15 AM 59.5 °F 52.9 °F 79% 29.96 in 10.0 mi NW 4.6 mph - N/A   Mostly Cloudy
4:35 AM 57.9 °F 52.0 °F 81% 29.97 in 10.0 mi NW 5.8 mph - N/A   Mostly Cloudy
4:55 AM 57.2 °F 50.2 °F 77% 29.98 in 10.0 mi NW 5.8 mph - N/A   Scattered Clouds
5:15 AM 55.0 °F 50.5 °F 85% 29.98 in 10.0 mi NW 4.6 mph - N/A   Clear
5:35 AM 56.1 °F 49.8 °F 79% 29.99 in 10.0 mi WNW 4.6 mph - N/A   Clear
5:55 AM 55.8 °F 50.5 °F 83% 29.99 in 10.0 mi WNW 4.6 mph - N/A   Clear
6:15 AM 55.8 °F 49.8 °F 80% 30.00 in 10.0 mi WNW 3.5 mph - N/A   Clear
6:35 AM 53.8 °F 49.6 °F 86% 30.01 in 10.0 mi West 3.5 mph - N/A   Clear
6:55 AM 52.9 °F 51.1 °F 94% 30.02 in 10.0 mi Calm Calm - N/A   Clear
7:15 AM 53.2 °F 53.1 °F 99% 30.02 in 10.0 mi Calm Calm - N/A   Clear
7:35 AM 56.1 °F 52.0 °F 86% 30.03 in 10.0 mi West 4.6 mph - N/A   Clear
7:55 AM 57.4 °F 50.7 °F 78% 30.03 in 10.0 mi Calm Calm - N/A   Clear
8:15 AM 58.1 °F 50.0 °F 74% 30.04 in 10.0 mi West 5.8 mph - N/A   Clear
8:35 AM 59.0 °F 50.4 °F 73% 30.04 in 10.0 mi WNW 5.8 mph - N/A   Clear
8:55 AM 59.7 °F 49.1 °F 68% 30.04 in 10.0 mi WNW 8.1 mph - N/A   Clear
9:15 AM 60.1 °F 48.4 °F 65% 30.04 in 10.0 mi NW 8.1 mph - N/A   Clear
9:35 AM 59.9 °F 48.0 °F 65% 30.05 in 10.0 mi WNW 3.5 mph - N/A   Clear
9:55 AM 61.7 °F 48.9 °F 63% 30.06 in 10.0 mi West 8.1 mph - N/A   Clear
10:15 AM 61.7 °F 48.0 °F 61% 30.06 in 10.0 mi West 6.9 mph - N/A   Clear
10:35 AM 62.8 °F 48.7 °F 60% 30.06 in 10.0 mi WSW 9.2 mph - N/A   Clear
10:55 AM 63.7 °F 49.5 °F 60% 30.07 in 10.0 mi West 9.2 mph - N/A   Clear
11:15 AM 64.4 °F 50.2 °F 60% 30.07 in 10.0 mi West 11.5 mph - N/A   Scattered Clouds
11:35 AM 64.8 °F 50.4 °F 60% 30.07 in 10.0 mi West 9.2 mph - N/A   Scattered Clouds
11:55 AM 66.2 °F 50.5 °F 57% 30.07 in 10.0 mi West 5.8 mph - N/A   Scattered Clouds
12:15 PM 66.6 °F 50.0 °F 55% 30.07 in 10.0 mi West 10.4 mph - N/A   Scattered Clouds
12:35 PM 66.7 °F 49.8 °F 54% 30.07 in 10.0 mi WNW 10.4 mph - N/A   Scattered Clouds
12:55 PM 67.8 °F 50.5 °F 54% 30.07 in 10.0 mi West 9.2 mph - N/A   Scattered Clouds
1:15 PM 68.5 °F 50.4 °F 52% 30.07 in 10.0 mi West 11.5 mph - N/A   Scattered Clouds
1:35 PM 67.6 °F 49.3 °F 52% 30.07 in 10.0 mi West 9.2 mph - N/A   Scattered Clouds
1:55 PM 68.2 °F 49.6 °F 51% 30.06 in 10.0 mi NW 10.4 mph 16.1 mph N/A   Scattered Clouds
2:15 PM 68.9 °F 49.1 °F 49% 30.06 in 10.0 mi WNW 6.9 mph - N/A   Scattered Clouds
2:35 PM 69.3 °F 49.6 °F 50% 30.06 in 10.0 mi West 8.1 mph - N/A   Clear
2:55 PM 69.8 °F 50.5 °F 50% 30.05 in 10.0 mi WNW 10.4 mph - N/A   Scattered Clouds
3:15 PM 70.2 °F 50.5 °F 50% 30.05 in 10.0 mi WNW 12.7 mph 16.1 mph N/A   Scattered Clouds
3:35 PM 70.2 °F 50.4 °F 49% 30.05 in 10.0 mi WNW 8.1 mph - N/A   Scattered Clouds
3:55 PM 70.7 °F 50.5 °F 49% 30.05 in 10.0 mi West 9.2 mph - N/A   Mostly Cloudy
4:15 PM 70.5 °F 50.0 °F 48% 30.05 in 10.0 mi WNW 9.2 mph - N/A   Scattered Clouds
4:35 PM 70.0 °F 50.0 °F 49% 30.04 in 10.0 mi NNW 6.9 mph - N/A   Scattered Clouds
4:55 PM 71.4 °F 50.0 °F 47% 30.04 in 10.0 mi NW 6.9 mph - N/A   Scattered Clouds
5:15 PM 71.2 °F 52.0 °F 51% 30.04 in 10.0 mi NNW 10.4 mph - N/A   Scattered Clouds
5:35 PM 68.7 °F 52.3 °F 56% 30.06 in 10.0 mi NNW 8.1 mph - N/A   Scattered Clouds
5:55 PM 68.0 °F 52.3 °F 57% 30.06 in 10.0 mi NNW 9.2 mph - N/A   Scattered Clouds
6:15 PM 67.1 °F 52.0 °F 58% 30.06 in 10.0 mi NNW 10.4 mph - N/A   Clear
6:35 PM 66.6 °F 51.8 °F 59% 30.06 in 10.0 mi North 11.5 mph - N/A   Clear
6:55 PM 66.2 °F 51.8 °F 60% 30.06 in 10.0 mi North 10.4 mph - N/A   Clear
7:15 PM 64.9 °F 50.9 °F 60% 30.05 in 10.0 mi North 12.7 mph - N/A   Clear
7:35 PM 63.7 °F 50.5 °F 62% 30.05 in 10.0 mi North 11.5 mph - N/A   Clear
7:55 PM 62.8 °F 50.0 °F 63% 30.05 in 10.0 mi NNE 10.4 mph - N/A   Clear
8:15 PM 61.2 °F 49.1 °F 65% 30.04 in 10.0 mi NNE 11.5 mph - N/A   Clear
8:35 PM 60.3 °F 48.7 °F 66% 30.04 in 10.0 mi NNE 9.2 mph - N/A   Clear
8:55 PM 59.4 °F 49.1 °F 69% 30.03 in 10.0 mi NNE 8.1 mph - N/A   Clear
9:15 PM 58.6 °F 48.7 °F 70% 30.05 in 10.0 mi North 9.2 mph - N/A   Clear
9:35 PM 57.7 °F 49.1 °F 73% 30.05 in 10.0 mi NNE 8.1 mph - N/A   Clear
9:55 PM 57.4 °F 48.9 °F 73% 30.07 in 10.0 mi North 6.9 mph - N/A   Clear
10:15 PM 56.7 °F 48.9 °F 75% 30.07 in 10.0 mi NNE 6.9 mph - N/A   Clear
10:35 PM 56.1 °F 48.6 °F 76% 30.08 in 10.0 mi NNE 5.8 mph - N/A   Clear
10:55 PM 55.8 °F 48.2 °F 76% 30.08 in 10.0 mi NNE 5.8 mph - N/A   Clear
11:15 PM 55.4 °F 48.2 °F 77% 30.08 in 10.0 mi NNE 5.8 mph - N/A   Clear
11:35 PM 55.4 °F 47.8 °F 76% 30.08 in 10.0 mi NE 6.9 mph - N/A   Clear
11:55 PM 55.4 °F 47.3 °F 74% 30.07 in 10.0 mi NE 11.5 mph - N/A   Clear